[Date Prev][Date Next][Thread Prev][Thread Next] - [Date Index][Thread Index][Author Index]

2 Line ISS Keps 12-13



ISS
1 25544U 98067A   02347.16043947  .00032517  00000-0  44021-3 0  4694
2 25544  51.6354 234.4923 0003432 261.3158 260.9103 15.57393262231887


----
Via the sarex mailing list at AMSAT.ORG courtesy of AMSAT-NA.
To unsubscribe, send "unsubscribe sarex" to Majordomo@amsat.org



AMSAT Top AMSAT Home